This is the latest recevied weather packets stored in our database for station/object SR9WXP. If no packets are shown the sender has not sent any weather packets the latest 1 day(s).
| Time | Temp. | Humidity | Pressure | Rain* | Wind** | Luminosity | Snow |
|---|---|---|---|---|---|---|---|
| 1778073127 | 15.56° C | 61% | 850.9 hPa | - | - | - | - |
| 1778072404 | 15.56° C | 60% | 851 hPa | - | - | - | - |
| 1778072344 | 15.56° C | 60% | 851 hPa | - | - | - | - |
| 1778071739 | 14.44° C | 62% | 850.4 hPa | - | - | - | - |
| 1778071680 | 14.44° C | 62% | 850.4 hPa | - | - | - | - |
| 1778071560 | 14.44° C | 62% | 850.5 hPa | - | - | - | - |
| 1778071436 | 14.44° C | 62% | 850.5 hPa | - | - | - | - |
| 1778071317 | 14.44° C | 62% | 850.4 hPa | - | - | - | - |
| 1778071198 | 15° C | 62% | 850.3 hPa | - | - | - | - |
| 1778071136 | 15° C | 62% | 850.3 hPa | - | - | - | - |
| 1778070833 | 14.44° C | 62% | 850.5 hPa | - | - | - | - |
| 1778070714 | 14.44° C | 62% | 850.7 hPa | - | - | - | - |
| 1778070474 | 14.44° C | 62% | 850.9 hPa | - | - | - | - |
| 1778069752 | 15° C | 62% | 850.8 hPa | - | - | - | - |
| 1778069627 | 15.56° C | 62% | 850.8 hPa | - | - | - | - |
| 1778069508 | 16.11° C | 62% | 850.7 hPa | - | - | - | - |
| 1778069327 | 16.67° C | 61% | 850.7 hPa | - | - | - | - |
| 1778069267 | 16.67° C | 61% | 850.7 hPa | - | - | - | - |
| 1778069024 | 16.67° C | 61% | 850.5 hPa | - | - | - | - |
| 1778068785 | 16.11° C | 62% | 850.6 hPa | - | - | - | - |
| 1778068711 | 15.56° C | 62% | 850.6 hPa | - | - | - | - |
| 1778068652 | 15.56° C | 62% | 850.6 hPa | - | - | - | - |
| 1778068532 | 15° C | 63% | 850.6 hPa | - | - | - | - |
| 1778068408 | 14.44° C | 63% | 850.7 hPa | - | - | - | - |
| 1778068290 | 14.44° C | 63% | 850.8 hPa | - | - | - | - |
* Rain since midnight (hover to see other rain measurements)
** Current wind speed in m/s (hover to see current wind gust speed)